Dewpoint
66 67 69 69 68 68 68 68 68 67 67 66 66 65 65 64 63 62 62 61 61 62 62 61 60 59 59 59 60 61 53 46
60 62 62 65 66 67 67 67 66 66 66 64 64 63 63 63 64 63 62 62 62 62 61 59 58 59 59 59 60 60 47 45
58 57 59 60 62 65 66 66 65 65 63 64 61 56 57 59 63 63 61 60 60 60 59 58 58 59 57 56 57 46 47 45
56 58 58 57 53 59 58 57 57 58 59 60 58 59 60 58 61 62 59 58 59 59 57 58 58 49 48 55 46 48 45 44
54 57 58 55 56 55 54 56 59 60 61 60 62 59 60 59 59 58 58 57 54 54 53 51 53 51 49 50 48 48 46 44
54 57 58 58 55 53 56 55 58 58 62 62 62 62 63 60 57 56 56 54 56 54 52 53 52 51 50 50 50 48 46 45
52 55 58 59 59 59 59 60 60 63 64 65 64 65 62 61 59 55 55 53 51 52 51 50 50 49 48 48 47 48 47 44
54 56 58 59 61 62 61 61 61 64 64 64 63 63 62 59 58 55 53 52 50 50 49 47 48 47 46 46 45 45 44 45
57 59 59 60 58 57 57 57 58 60 61 62 61 61 60 59 55 53 50 49 50 48 50 48 44 42 42 41 40 40 38 40
58 58 61 60 59 57 57 58 58 59 59 59 58 56 55 53 50 49 49 48 48 46 42 39 38 36 38 35 33 33 35 36
59 61 61 60 59 59 59 58 57 57 53 53 52 51 51 49 48 49 48 44 42 40 39 39 37 35 32 34 35 32 36 30
60 60 61 60 61 60 58 57 52 50 48 47 48 48 49 48 47 46 43 40 41 40 41 37 36 34 28 33 36 32 31 34
60 60 60 60 59 56 55 51 48 47 46 47 47 47 47 48 43 42 41 39 39 41 39 39 36 36 32 32 33 36 37 33
59 58 59 59 56 53 51 48 46 46 46 48 47 47 45 42 43 40 41 38 39 40 41 37 36 37 33 32 30 30 29 31
58 58 56 53 50 48 48 47 47 45 46 45 46 45 42 42 41 41 41 39 37 40 40 38 34 35 37 32 29 28 29 30
56 52 49 48 48 46 47 43 43 47 46 45 44 43 41 39 39 40 41 40 40 39 36 39 39 34 34 31 36 33 29 29
49 48 47 48 48 47 47 46 47 46 46 46 45 44 40 37 39 40 40 39 40 41 41 41 39 38 34 33 34 33 33 31
49 47 46 48 49 49 48 48 44 43 43 42 39 37 35 36 36 39 40 39 38 38 40 39 40 39 36 36 35 33 30 31
48 46 46 48 49 49 48 46 43 40 39 37 35 34 34 37 39 39 37 37 36 37 37 39 39 38 38 39 34 33 33 32
48 46 46 48 48 46 45 42 39 38 36 37 37 37 37 39 39 37 34 33 33 36 36 37 39 41 39 37 34 34 32 30
Lifted_Index
-7 -7 -6 -6 -5 -5 -4 -4 -3 -2 -2 -1 -0 0 0 0 0 0 0 0 0 0 0 1 3 4 4 4 4 4 3 3
-6 -5 -5 -5 -5 -4 -4 -3 -2 -1 -1 -0 0 1 1 0 0 0 0 0 0 1 1 2 3 4 4 5 4 4 3 3
-4 -4 -3 -3 -3 -3 -2 -1 -1 -1 -0 0 0 0 -0 -0 -0 -0 1 1 1 2 3 3 4 4 4 4 4 4 4 4
-2 -2 -2 -2 -1 -1 -1 -0 -0 -1 -1 -1 -1 -1 -2 -1 -1 -1 1 1 2 2 3 3 3 3 3 4 4 4 4 4
-1 -1 -1 -1 -0 -0 -0 -0 -1 -2 -2 -3 -3 -3 -3 -3 -2 -1 -0 1 1 2 2 2 2 3 3 3 4 3 3 3
-0 -1 -1 -1 -1 -1 -1 -1 -2 -3 -3 -4 -4 -4 -4 -3 -3 -2 -1 -0 0 1 1 2 2 3 3 3 3 3 3 3
-0 -1 -1 -1 -2 -2 -2 -2 -3 -3 -4 -4 -4 -4 -4 -4 -3 -2 -1 0 1 2 2 3 3 3 3 3 3 4 4 4
-1 -1 -2 -2 -2 -2 -2 -2 -2 -3 -3 -3 -3 -3 -3 -3 -2 -1 0 2 3 3 4 4 4 4 4 4 4 5 5 5
-2 -2 -2 -2 -1 -1 -0 -0 -0 -1 -2 -2 -2 -2 -2 -1 -0 1 2 3 4 5 5 5 5 5 6 6 6 7 7 7
-3 -2 -2 -1 -0 0 1 2 2 1 0 -0 0 0 0 1 2 3 4 5 5 6 6 7 7 7 8 8 8 9 9 9
-3 -3 -2 -1 -0 0 1 2 2 2 2 3 3 3 3 3 4 4 5 6 6 7 8 8 9 9 9 9 9 9 9 9
-3 -2 -2 -1 -1 -0 1 2 3 3 4 5 4 4 4 4 5 5 6 7 7 8 8 9 9 9 9 9 9 9 9 9
-3 -2 -1 -1 -1 0 1 2 3 4 5 5 5 5 5 5 5 6 6 7 7 8 8 8 9 9 9 9 9 9 9 9
-2 -2 -1 -1 -0 1 2 3 4 4 5 5 5 5 5 5 5 6 6 7 7 8 8 8 9 9 10 10 10 10 10 10
-2 -2 -1 0 1 2 3 4 4 4 4 5 5 6 6 6 6 6 7 7 8 8 8 9 9 10 10 10 11 11 11 11
-1 -0 1 2 3 3 4 4 4 4 5 5 6 6 7 7 7 7 7 8 8 8 9 9 10 10 11 11 11 11 11 12
1 2 3 3 3 3 3 3 4 4 5 5 6 7 7 8 8 8 8 8 9 9 9 9 10 10 11 11 11 11 11 12
3 3 3 3 3 3 3 4 4 5 6 6 7 8 8 8 8 8 8 9 9 10 10 10 10 11 11 11 11 11 11 11
3 3 3 3 3 4 4 5 6 6 7 7 8 8 8 8 8 9 9 10 10 11 11 10 10 10 10 10 10 10 10 9
3 3 3 3 4 4 5 6 6 7 8 8 8 8 8 8 8 9 10 11 11 11 11 10 10 10 10 9 9 9 8 8